Regional Weather Roundup
Issued by NWS

Home | Current Version | Previous Version | Graphics & Text | Print | Product List | Glossary On
Versions: 1 2 3 4 5 6 7 8 9 10 11 12 13 14 15 16 17 18 19 20 21 22 23 24 25 26 27 28 29 30 31 32 33 34 35 36 37 38 39 40 41 42 43 44 45 46 47 48 49 50
000
ASUS43 KLOT 262206
RWRIL

ILLINOIS REGIONAL WEATHER ROUNDUP
NATIONAL WEATHER SERVICE CHICAGO/ROMEOVILLE IL
400 PM CST WED NOV 26 2014

NOTE: "FAIR" INDICATES FEW OR NO CLOUDS BELOW 12,000 FEET WITH NO
SIGNIFICANT WEATHER AND/OR OBSTRUCTIONS TO VISIBILITY.

* THESE STATIONS ARE NOT UNDER NWS QUALITY CONTROL. THEY ALSO MAY NOT
  REPORT WEATHER SUCH AS PRECIPITATION OR FOG.

ILZ001-002-007-009-015-016-024-262300-
NORTHWEST ILLINOIS

CITY           SKY/WX    TMP DP  RH WIND       PRES   REMARKS
MOLINE         CLOUDY    29  24  82 E12       30.09R WCI  19
STERLING*      CLOUDY    27  21  80 E13       30.11S WCI  16
SAVANNA*       CLOUDY    28  23  79 NE8       30.13R WCI  20
$$

ILZ003-004-008-010-011-017-018-262300-
NORTH CENTRAL ILLINOIS

CITY           SKY/WX    TMP DP  RH WIND       PRES   REMARKS
ROCKFORD       CLOUDY    26  18  71 CALM      30.15R
FREEPORT*      CLOUDY    25  20  81 E5        30.14S WCI  19
ROCHELLE*      CLOUDY    25  20  82 E5        30.13R WCI  19
DE KALB*       CLOUDY    24  19  78 E3        30.12R
PERU*          CLOUDY    28  23  81 E8        30.11S WCI  20
$$

ILZ005-006-012>014-019>023-262300-
NORTHEAST ILLINOIS

CITY           SKY/WX    TMP DP  RH WIND       PRES   REMARKS
CHICAGO-OHARE  CLOUDY    28  21  75 E7        30.11R WCI  21
CHICAGO-MIDWAY CLOUDY    29  19  66 E6        30.13R WCI  23
AURORA         MOCLDY    27  17  66 E5        30.12R WCI  22
LANSING*       CLOUDY    28  20  73 CALM      30.12S
JOLIET*        CLOUDY    26  20  77 CALM      30.12S
WAUKEGAN       CLOUDY    28  22  78 N5        30.12R WCI  23
DUPAGE AIRPORT CLOUDY    28  19  69 E3        30.11R
KANKAKEE*      CLOUDY   N/A N/A N/A E5        30.11S
WHEELING       CLOUDY    29  21  72 CALM      30.14R
MORRIS*        CLOUDY    28  22  81 E6        30.11S WCI  21
NORTHERLY ISL    N/A     28  21  75 SE6         N/A  WCI  22
$$

LMZ740>746-262300-
SOUTHERN LAKE MICHIGAN

STATION/POSITION SKY/WX   TEMP    WIND        PRES    VSBY  WAVE
                          AIR SEA DIR/SP/G                  HT/PER
                          (F)     (DEG/KT/KT) (MB)    (MI)  (FT/S)
SOUTHERN BUOY              32 42  130/  6/  8 1021.1R         1/ 3
WAUKEGAN HARBOR            29     330/  4/  6   N/A
HARRISON CRIB              28      70/  4/  6   N/A
BURNHAM HARBOR             28     110/  1/  7   N/A
CALUMET HARBOR             27      90/  4/  6 1018.9S
MICHIGAN CITY              27      70/  2/  4   N/A
$$

ILZ025>027-034>036-040-047-049-050-058-095>099-262300-
WEST-CENTRAL ILLINOIS

CITY           SKY/WX    TMP DP  RH WIND       PRES   REMARKS
QUINCY         CLOUDY    32  30  92 E9        30.00R FOG     WCI  24
GALESBURG*     LGT SNOW  30  27  91 E9        30.05R WCI  21
MACOMB*        LGT SNOW  30  30  99 E12       30.07R VSB 3/4 WCI  21
JACKSONVILLE*  SNOW      34  32  93 E8        30.03R VSB 1/2 WCI  27
PITTSFIELD*    CLOUDY    33  32  96 E7        30.02R WCI  27
$$

ILZ028>032-037-038-041>044-048-051>054-059>061-262300-
CENTRAL ILLINOIS

CITY           SKY/WX    TMP DP  RH WIND       PRES   REMARKS
PONTIAC        CLOUDY    29  25  82 E8        30.10S WCI  21
BLOOMINGTON    CLOUDY    28  24  85 E9        30.08R WCI  19
DECATUR        LGT SNOW  29  26  89 E13       30.06S VSB 3/4 WCI  19
PEORIA         CLOUDY    31  25  78 E15       30.06S HAZE    WCI  20
LACON*         CLOUDY    28  23  81 E7        30.09S WCI  21
LINCOLN*       LGT SNOW  31  28  91 E12       30.07R WCI  21
SPRINGFIELD    LGT SNOW  31  29  92 E14       30.04R FOG     WCI  21
TAYLORVILLE    LGT SNOW  30  30 100 E12       30.03S WCI  21
$$

ILZ033-039-045-046-055>057-062-063-262300-
EAST-CENTRAL ILLINOIS

CITY           SKY/WX    TMP DP  RH WIND       PRES   REMARKS
CHAMPAIGN      CLOUDY    29  24  82 E7        30.07R WCI  22
DANVILLE*      MOCLDY    31  24  76 NE5       30.04F WCI  26
MATTOON        CLOUDY    30  24  78 CALM      30.05R
PARIS*         MOCLDY    33  26  77 CALM      30.07R
$$

ILZ079-100>102-262300-
SOUTHWEST ILLINOIS

CITY           SKY/WX    TMP DP  RH WIND       PRES   REMARKS
ALTON          LGT SNOW  32  32 100 E6        30.02R VSB 3/4 WCI  26
BELLEVILLE     LGT SNOW  33  33 100 NE2       30.02R VSB 3/4
CAHOKIA*       SNOW      33  32  96 SE6       30.02R VSB 1/2 WCI  28
SPARTA*        SNOW      32  32  99 CALM      30.02R VSB 1/2
$$

ILZ064>066-069>071-074>076-080>082-084>086-088>090-092>094-262300-
SOUTH-CENTRAL ILLINOIS

CITY           SKY/WX    TMP DP  RH WIND       PRES   REMARKS
CARBONDALE     LGT SNOW  33  31  92 CALM      30.02R VSB 3/4
CAIRO*         LGT RAIN  41  35  80 S7        30.02R
EFFINGHAM*     LGT SNOW  32  29  89 CALM      30.05R VSB 3/4
MARION         LGT SNOW  36  34  93 S6        30.02R WCI  31
MT. VERNON     CLOUDY    34  28  80 E3        30.03R VSB 1
CENTRALIA*     SNOW      32  31  94 E3        30.02R VSB 1/2
SALEM*         LGT SNOW  36  32  87 E5        30.03R WCI  32
METROPOLIS*    RAIN      40  37  91 S7          N/A
$$

ILZ067-068-072-073-078-083-087-091-262300-
SOUTHEAST ILLINOIS

CITY           SKY/WX    TMP DP  RH WIND       PRES   REMARKS
LAWRENCEVILLE  CLOUDY    38  29  70 N6        30.05R WCI  33
FLORA*         LGT SNOW  33  32  94 NE6       30.04S WCI  28
FAIRFIELD*     CLOUDY    36  30  79 NE7       30.02R WCI  31
HARRISBURG*    LGT SNOW  36  33  92 SE7       30.03R WCI  30
CARMI*         CLOUDY    40  32  72 E5        30.02R
$$

ABBREVIATIONS USED IN REMARKS
   TC - TEMPERATURE IN CELSIUS
  WCI - WIND CHILL INDEX
   HX - HEAT INDEX
  VSB - VISIBILITY
$$



USA.gov is the U.S. government's official web portal to all federal, state and local government web resources and services.